Flag for Canada Weather past 2 weeks in Richmond, British Columbia, Canada

Now
54 °F

Mostly cloudy.


Feels Like: 50 °F
Forecast: 51 / 56 °F
Wind: 10 mph from East

Location: Vancouver International Air-Port

Current Time: Mar 30, 2015 at 9:58:21 AM

Latest Report: Mar 30, 2015 at 9:00 AM


Visibility: 15 mi

Pressure: 30.02 "Hg

Humidity: 88%

Dew point: 50 °F

Location of RichmondLocation

Historic Weather in Richmond — Graph

°F

Richmond temperature yesterday

Maximum temperature yesterday: 50 °F (at 12:00 AM)
Minimum temperature yesterday: 48 °F (at 2:00 AM)
Average temperature yesterday: 49 °F

Past Weeks' High & Low Weather Summary

 TemperatureHumidityPressure
High63 °F (Mar 26, 2:00 PM)100% (Mar 15, 3:00 PM)30.31 "Hg (Mar 15, 3:00 PM)
Low37 °F (Mar 16, 7:00 AM)51% (Mar 18, 5:00 PM)29.75 "Hg (Mar 15, 3:00 PM)
Average49 °F86%30.08 "Hg
* Reported Mar 15 8:00 AM — Mar 30 8:00 AM, Richmond, Weather by CustomWeather, © 2015

Note: Actual official high and low records may vary slightly from our data, if they occured in-between our weather recording intervals... More about our weather records

Advertising

Richmond weather history for previous 24 hours

 ConditionsComfort  
Time TempWeatherWind HumidityBarometerVisibility
8:00 AM
Mon, Mar 30
52 °FCloudy.9 mph88%30.03 "Hg15 mi
7:00 AM50 °FMostly cloudy.12 mph94%30.03 "Hg15 mi
6:00 AM50 °FMostly cloudy.8 mph94%30.05 "Hg15 mi
5:00 AM50 °FMostly cloudy.12 mph94%30.05 "Hg15 mi
4:00 AM50 °FMostly cloudy.9 mph94%30.07 "Hg15 mi
3:00 AM50 °FMostly cloudy.10 mph94%30.08 "Hg15 mi
2:00 AM50 °FMostly cloudy.12 mph94%30.09 "Hg15 mi
1:48 AM50 °FMostly cloudy.12 mph94%30.09 "Hg15 mi
1:00 AM50 °FLight rain. Fog.8 mph94%30.10 "Hg4 mi
12:00 AM50 °FLight rain. Fog.7 mph94%30.11 "Hg2 mi
11:47 PM
Sun, Mar 29
50 °FLight rain. Fog.8 mph94%30.12 "Hg2 mi
11:00 PM48 °FLight rain. Fog.7 mph100%30.14 "Hg1 mi
10:51 PM48 °FLight rain. Fog.8 mph100%30.14 "Hg1 mi
10:00 PM50 °FLight rain. Overcast.7 mph94%30.14 "Hg10 mi
9:51 PM50 °FLight rain. Mostly cloudy.8 mph94%30.14 "Hg10 mi
9:00 PM50 °FLight rain. Overcast.7 mph94%30.14 "Hg8 mi
8:00 PM50 °FOvercast.6 mph94%30.14 "Hg8 mi
7:00 PM50 °FLight rain. Low clouds.7 mph94%30.15 "Hg8 mi
6:56 PM50 °FLight rain. Low clouds.9 mph94%30.15 "Hg8 mi
6:00 PM50 °FLight rain. More clouds than sun.12 mph94%30.16 "Hg9 mi
5:00 PM50 °FLight rain. More clouds than sun.10 mph94%30.18 "Hg6 mi
4:00 PM50 °FLight rain. Fog.10 mph94%30.18 "Hg5 mi
3:00 PM48 °FLight rain. Fog.9 mph94%30.19 "Hg4 mi
2:51 PM48 °FLight rain. Fog.10 mph94%30.19 "Hg4 mi
2:00 PM50 °FLight rain. Fog.12 mph94%30.19 "Hg3 mi
1:00 PM48 °FRain. Fog.12 mph94%30.19 "Hg4 mi
12:00 PM48 °FLight rain. Fog.13 mph94%30.19 "Hg4 mi
11:00 AM48 °FLight rain. Overcast.16 mph94%30.18 "Hg12 mi
10:48 AM48 °FLight rain. Overcast.14 mph94%30.19 "Hg12 mi
10:00 AM48 °FOvercast.13 mph87%30.18 "Hg12 mi
9:00 AM48 °FOvercast.14 mph87%30.17 "Hg20 mi
Weather by CustomWeather, © 2015

See weather overviewHow to use our weather pages